星链-1692 (STARLINK-1692 )

导读

STARLINK-1692(星链-1692)是美国SpaceX星链项目中的低轨通信卫星,属于星链V1.0版本卫星,于北京时间2020年10月6日发射升空,国际标识为2020-070L。它运行在近地轨道,轨道倾角约53度,目前处于在轨状态,旨在为全球提供高速卫星互联网接入服务,重点覆盖偏远及网络基础设施薄弱区域,卫星搭载自动避障系统降低空间碰撞风险,是星链全球卫星互联网组网的组成部分。

基本信息
目录编号:
46542
目录名称:
STARLINK-1692
国际标识:
2020-070L
轨道中心:
EARTH
卫星名称:
星链-1692
卫星全名:
星链-1692 (STARLINK-1692 )
卫星状态:
已陨落 最后检测时间 2025-12-08
发射日期:
2020-10-06 UTC
国别 :
美国 (US)
星等 :
--
轨道信息
数据来源 国际轨道数据
星历时间: 2025-12-08T22:23:18+0800
轨道信息已过期192天
半长轴: 6536.078km
偏心率: 0.000549
轨道倾角: 53.019°
近地点辐角 287.382°
升交点赤经 146.136°
平近点角 72.662°
近地点: 154.354km
远地点: 161.532km
周期: 87.647分钟
每日圈数: 16.429598
详细信息
固有亮度:
5
最大亮度:
2.5
卫星平台:
Starlink V1.0
覆盖范围:
全球
运营商:
太空探索技术公司
运营商所在国:
美国
制造商(研发单位):
太空探索技术公司
制造商所在国:
美国
使用方式:
暂无
卫星简介
星链(Starlink)计划是由太空探索技术公司(SpaceX)提出的一个巨型低轨卫星互联网星座项目,计划在2019年至2024年间在太空搭建由约1.2万颗卫星组成的“星链”网络,其中1584颗将部署在地球上空550千米处的近地轨道,并从2020年开始工作。该卫星仍在工作。